Location: Newark
(52.3500°N, 175.9667°E)
Time: 03:58:19
(UTC+00:00)

N. Korean satellite - Pass Details

Date: 23 November 2019
Orbit: 455 x 507 km, 97.2° (Epoch: 13 December)

Event Time Altitude Azimuth Distance (km) Brightness Sun altitude
Rises 18:31:20 0° 11° (N) 2,619 10.2 -11.8°
Reaches altitude 10° 18:33:27 10° 9° (N) 1,725 9.3 -11.5°
Maximum altitude 18:37:09 71° 286° (WNW) 533 6.5 -10.9°
Drops below altitude 10° 18:40:46 10° 203° (SSW) 1,686 9.3 -10.4°
Sets 18:42:49 0° 201° (SSW) 2,555 10.2 -10.1°
